Kelso-Longview, WA
on Tuesday, November 6, 2012

Tuesday
Previous Day Next Day
Daily Summary
 ActualAverage (KSPB)Record (KSPB)
Temperature
Mean Temperature °F °F  
Max Temperature 55°F °F 64°F (2006)
Min Temperature 48°F °F 28°F (2003)
Degree Days
Heating Degree Days 14    
Month to date heating degree days  
Since 1 July heating degree days  
Cooling Degree Days 0    
Month to date cooling degree days  
Year to date cooling degree days  
Growing Degree Days2 (Base °F )  
Moisture
Dew Point 49°F   
Average Humidity 87    
Maximum Humidity 94    
Minimum Humidity 76    
Precipitation
Precipitation 0.01 in in 2.35 in (2006)
Month to date precipitation  
Year to date precipitation  
Wind
Wind Speed 2 mph   
Max Wind Speed 12 mph   
Max Gust Speed 17 mph   
Visibility 7 miles   
Events     

Key: T is trace of precipitation, MM is missing value
Source: NWS Daily Summary
Time(PST)TemperatureDew PointHumidity Pressure Visibility Wind DirectionWind SpeedGust SpeedPrecipitationEvents Conditions
12:15 AM 50.0°F 44.6°F 82% 30.14 in 10.0 miles Calm Calm - N/A   Overcast
12:35 AM 51.8°F 44.6°F 76% 30.14 in 10.0 miles Calm Calm - N/A   Overcast
12:55 AM 51.8°F 46.4°F 82% 30.14 in 10.0 miles Calm Calm - N/A   Overcast
1:15 AM 51.8°F 46.4°F 82% 30.14 in 10.0 miles Calm Calm - N/A   Overcast
1:35 AM 50.0°F 46.4°F 87% 30.13 in 9.0 miles Calm Calm - N/A   Overcast
1:55 AM 50.0°F 46.4°F 87% 30.13 in 4.0 miles Calm Calm - N/A   Overcast
2:15 AM 48.2°F 46.4°F 93% 30.12 in 2.5 miles Calm Calm - N/A   Overcast
2:35 AM 48.2°F 46.4°F 93% 30.12 in 2.0 miles NNW 3.5 mph - N/A   Overcast
2:55 AM 48.2°F 46.4°F 93% 30.11 in 1.8 miles Calm Calm - N/A   Overcast
3:15 AM 48.2°F 46.4°F 93% 30.11 in 1.5 miles Calm Calm - N/A   Overcast
3:35 AM 48.2°F 46.4°F 93% 30.10 in 3.0 miles NNW 3.5 mph - N/A   Overcast
3:55 AM 48.2°F 44.6°F 87% 30.09 in 3.0 miles Calm Calm - N/A   Overcast
4:15 AM 48.2°F 44.6°F 87% 30.09 in 4.0 miles Calm Calm - N/A   Overcast
4:35 AM 48.2°F 44.6°F 87% 30.08 in 4.0 miles Calm Calm - N/A   Overcast
4:55 AM 48.2°F 44.6°F 87% 30.08 in 2.0 miles Calm Calm - N/A   Overcast
5:15 AM 48.2°F 44.6°F 87% 30.08 in 1.8 miles Calm Calm - N/A   Overcast
5:35 AM 48.2°F 46.4°F 93% 30.08 in 1.5 miles Calm Calm - N/A   Overcast
5:55 AM 48.2°F 46.4°F 93% 30.07 in 1.0 miles Calm Calm - N/A   Overcast
6:15 AM 48.2°F 46.4°F 93% 30.06 in 1.2 miles Calm Calm - N/A   Overcast
6:35 AM 48.2°F 46.4°F 93% 30.06 in 1.5 miles Calm Calm - N/A   Overcast
6:55 AM 48.2°F 46.4°F 93% 30.06 in 1.8 miles Calm Calm - N/A   Overcast
7:15 AM 48.2°F 46.4°F 93% 30.06 in 0.5 miles Calm Calm - N/A   Overcast
7:35 AM 48.2°F 46.4°F 93% 30.06 in 0.5 miles Calm Calm - N/A   Overcast
7:55 AM 48.2°F 46.4°F 93% 30.07 in 0.8 miles Calm Calm - N/A   Overcast
8:15 AM 48.2°F 46.4°F 93% 30.07 in 1.0 miles Calm Calm - N/A   Overcast
8:35 AM 50.0°F 46.4°F 87% 30.07 in 1.0 miles Calm Calm - N/A   Overcast
8:55 AM 51.8°F 48.2°F 88% 30.06 in 1.2 miles Calm Calm - N/A   Overcast
9:15 AM 51.8°F 48.2°F 88% 30.05 in 1.2 miles Calm Calm - N/A   Overcast
9:35 AM 53.6°F 51.8°F 94% 30.06 in 2.5 miles South 4.6 mph - N/A   Overcast
9:55 AM 53.6°F 51.8°F 94% 30.05 in 5.0 miles SSE 9.2 mph - N/A   Overcast
10:15 AM 55.4°F 51.8°F 88% 30.05 in 10.0 miles South 8.1 mph 16.1 mph N/A   Overcast
10:35 AM 55.4°F 51.8°F 88% 30.05 in 9.0 miles South 6.9 mph 17.3 mph N/A   Overcast
10:55 AM 55.4°F 51.8°F 88% 30.06 in 10.0 miles South 6.9 mph - N/A   Overcast
11:15 AM 55.4°F 51.8°F 88% 30.05 in 10.0 miles SSE 9.2 mph - N/A   Overcast
11:35 AM 55.4°F 51.8°F 88% 30.05 in 10.0 miles SSE 8.1 mph - N/A   Overcast
11:55 AM 55.4°F 51.8°F 88% 30.05 in 10.0 miles SSE 8.1 mph 17.3 mph N/A   Overcast
12:15 PM 55.4°F 51.8°F 88% 30.04 in 8.0 miles South 9.2 mph - N/A   Overcast
12:35 PM 55.4°F 51.8°F 88% 30.03 in 7.0 miles SSE 10.4 mph - N/A   Overcast
12:55 PM 55.4°F 51.8°F 88% 30.03 in 6.0 miles SSE 10.4 mph 16.1 mph N/A   Overcast
1:15 PM 55.4°F 51.8°F 88% 30.03 in 6.0 miles South 9.2 mph - N/A   Overcast
1:35 PM 55.4°F 51.8°F 88% 30.04 in 6.0 miles SSE 9.2 mph - N/A   Overcast
1:55 PM 55.4°F 51.8°F 88% 30.04 in 7.0 miles SSE 8.1 mph - N/A   Overcast
2:15 PM 55.4°F 51.8°F 88% 30.05 in 8.0 miles SSE 9.2 mph - N/A   Overcast
2:35 PM 55.4°F 51.8°F 88% 30.04 in 9.0 miles SSE 11.5 mph - N/A   Overcast
2:55 PM 55.4°F 51.8°F 88% 30.04 in 10.0 miles SE 10.4 mph - N/A   Overcast
3:15 PM 55.4°F 51.8°F 88% 30.04 in 10.0 miles SSE 9.2 mph - N/A   Overcast
3:35 PM 55.4°F 50.0°F 82% 30.05 in 10.0 miles SSE 6.9 mph - N/A   Overcast
3:55 PM 55.4°F 51.8°F 88% 30.05 in 5.0 miles SSE 4.6 mph - N/A   Overcast
4:15 PM 55.4°F 51.8°F 88% 30.05 in 8.0 miles SSE 5.8 mph - N/A   Overcast
4:35 PM 55.4°F 51.8°F 88% 30.04 in 4.0 miles SSE 8.1 mph - N/A   Overcast
4:55 PM 55.4°F 51.8°F 88% 30.05 in 9.0 miles SSE 5.8 mph - N/A   Overcast
5:15 PM 55.4°F 51.8°F 88% 30.05 in 9.0 miles SSE 3.5 mph - N/A   Overcast
5:35 PM 55.4°F 51.8°F 88% 30.05 in 7.0 miles South 3.5 mph - 0.01 in   Mostly Cloudy
5:55 PM 55.4°F 51.8°F 88% 30.05 in 10.0 miles Calm Calm - 0.01 in   Overcast
6:15 PM 55.4°F 51.8°F 88% 30.05 in 10.0 miles Calm Calm - N/A   Overcast
6:35 PM 55.4°F 48.2°F 77% 30.05 in 10.0 miles Calm Calm - N/A   Overcast
6:55 PM 55.4°F 48.2°F 77% 30.05 in 10.0 miles Calm Calm - N/A   Overcast
7:15 PM 55.4°F 48.2°F 77% 30.06 in 10.0 miles Calm Calm - N/A   Overcast
7:35 PM 53.6°F 50.0°F 88% 30.06 in 10.0 miles Calm Calm - N/A   Mostly Cloudy
7:55 PM 53.6°F 48.2°F 82% 30.07 in 10.0 miles Calm Calm - N/A   Mostly Cloudy
8:15 PM 53.6°F 48.2°F 82% 30.07 in 10.0 miles Calm Calm - N/A   Overcast
8:35 PM 53.6°F 48.2°F 82% 30.08 in 10.0 miles Calm Calm - N/A   Mostly Cloudy
8:55 PM 51.8°F 48.2°F 88% 30.08 in 10.0 miles Calm Calm - N/A   Mostly Cloudy
9:15 PM 51.8°F 48.2°F 88% 30.09 in 10.0 miles Calm Calm - N/A   Overcast
9:35 PM 51.8°F 46.4°F 82% 30.09 in 10.0 miles Calm Calm - N/A   Scattered Clouds
9:55 PM 50.0°F 46.4°F 87% 30.09 in 10.0 miles Calm Calm - N/A   Scattered Clouds
10:15 PM 51.8°F 46.4°F 82% 30.10 in 10.0 miles Calm Calm - N/A   Overcast
10:35 PM 51.8°F 46.4°F 82% 30.09 in 10.0 miles NE 3.5 mph - N/A   Overcast
10:55 PM 51.8°F 46.4°F 82% 30.10 in 10.0 miles Calm Calm - N/A   Overcast
11:15 PM 51.8°F 46.4°F 82% 30.11 in 10.0 miles Calm Calm - N/A   Overcast
11:35 PM 51.8°F 46.4°F 82% 30.11 in 10.0 miles South 4.6 mph - N/A   Mostly Cloudy
11:55 PM 51.8°F 46.4°F 82% 30.11 in 10.0 miles Calm Calm - N/A   Overcast
Moon Phase
Nov. 06 Nov. 06 Nov. 13 Nov. 20 Nov. 28
Sunrise:07:00 AM (PST) Moon Rise:11:39 PM (PST)11/6
Sunset:04:49 PM (PST) Moon Set:12:52 PM (PST)11/6

Copyright © 2014 The Weather Underground, Inc.